sat.trackr.live / text

‹ back to catalog

STARLINK-32127

NORAD 60146 · 2024-120M

PAYLOAD ACTIVE UNKNOWN

§ Identity

Operator
Country
US
Launch date
2024-06-27
Launch site
AFETR
Launch vehicle
Mass (kg)
RCS (m²)

Purposes: comms

External: N2YO · Heavens-Above · Gunter

§ Orbital elements

Epoch: 2026-05-24T19:12:41.387328Z

Period
94.11 min
Inclination
53.1612°
Eccentricity
0.0001081
Mean motion
15.30189201 rev/d
Perigee alt
474.5 km
Apogee alt
476.0 km
Semi-major
6,853.4 km
B*
-1.1970e-6
RAAN
326.0742°
Arg perigee
93.8227°
Mean anomaly
266.2898°
Rev number
10,803

§ Raw data

STARLINK-321271 60146U 24120M   26144.80047902 -.00000394  00000+0 -11970-5 0  99932 60146  53.1612 326.0742 0001081  93.8227 266.2898 15.30189201108035

JSON: /api/v1/satellites/60146 · /tle

For live sub-satellite position, see the globe view (requires WebGL).

§ Visibility from observer

Set your observer location to see the next 7 days of passes ≥ 10°. The values pass through the URL so the page stays shareable.

No JS? Fill the form by hand. The geolocation button needs JavaScript.